| time (UTC) | temp F | wind direction | speed knots | gust knots | rain 1hr in | rain 24hr in | rain mn in | humidity % | barometer mb |
| 20260510180004 | 55 | 240 | 5.2 | 9.6 | 0.00 | 0.13 | 0.01 | 42 | 1017.1 |
| 20260510172959 | 55 | 333 | 5.2 | 13.0 | 0.00 | 0.13 | 0.01 | 41 | 1016.7 |
| 20260510171459 | 55 | 277 | 5.2 | 9.6 | 0.00 | 0.13 | 0.01 | 45 | 1016.8 |
| 20260510170002 | 54 | 321 | 6.1 | 12.2 | 0.00 | 0.13 | 0.01 | 42 | 1016.7 |
| 20260510164459 | 54 | 262 | 7.0 | 18.2 | 0.00 | 0.13 | 0.01 | 43 | 1016.7 |
| 20260510162958 | 54 | 279 | 7.8 | 19.1 | 0.00 | 0.13 | 0.01 | 47 | 1016.7 |
| 20260510161459 | 54 | 245 | 5.2 | 16.5 | 0.00 | 0.13 | 0.01 | 52 | 1016.5 |
| 20260510160002 | 54 | 262 | 5.2 | 11.3 | 0.00 | 0.13 | 0.01 | 51 | 1016.5 |
| 20260510154459 | 53 | 288 | 6.1 | 12.2 | 0.00 | 0.13 | 0.01 | 54 | 1016.4 |
| 20260510142959 | 52 | 280 | 5.2 | 10.4 | 0.00 | 0.13 | 0.01 | 58 | 1015.6 |
| 20260510141459 | 52 | 277 | 4.3 | 10.4 | 0.00 | 0.13 | 0.01 | 62 | 1015.3 |
| 20260510140001 | 51 | 271 | 4.3 | 11.3 | 0.00 | 0.13 | 0.01 | 59 | 1015.2 |
| 20260510132959 | 51 | 194 | 3.5 | 7.8 | 0.00 | 0.13 | 0.01 | 64 | 1014.6 |
| 20260510131459 | 50 | 279 | 4.3 | 8.7 | 0.00 | 0.13 | 0.01 | 66 | 1014.5 |
| 20260510130002 | 50 | 267 | 3.5 | 9.6 | 0.00 | 0.13 | 0.01 | 65 | 1014.5 |
| 20260510124458 | 50 | 248 | 3.5 | 9.6 | 0.00 | 0.13 | 0.01 | 68 | 1014.4 |
| 20260510122958 | 49 | 315 | 3.5 | 7.8 | 0.00 | 0.13 | 0.01 | 68 | 1014.3 |
| 20260510121458 | 48 | 272 | 2.6 | 6.1 | 0.00 | 0.13 | 0.01 | 71 | 1014.2 |
| 20260510114500 | 48 | 253 | 3.5 | 8.7 | 0.00 | 0.13 | 0.01 | 75 | 1014.0 |
| 20260510112958 | 47 | 256 | 3.5 | 7.0 | 0.00 | 0.13 | 0.01 | 75 | 1013.6 |
| 20260510111458 | 47 | 273 | 2.6 | 7.8 | 0.00 | 0.13 | 0.01 | 76 | 1013.3 |
| 20260510104457 | 47 | 271 | 2.6 | 7.0 | 0.00 | 0.13 | 0.01 | 78 | 1012.5 |
| 20260510102957 | 47 | 282 | 1.7 | 3.5 | 0.00 | 0.13 | 0.01 | 79 | 1011.9 |
| 20260510101458 | 47 | 269 | 1.7 | 5.2 | 0.00 | 0.13 | 0.01 | 78 | 1011.8 |
| 20260510092958 | 47 | 299 | 0.0 | 0.9 | 0.00 | 0.13 | 0.01 | 78 | 1010.7 |
| 20260510091457 | 48 | 300 | 0.9 | 2.6 | 0.00 | 0.13 | 0.01 | 76 | 1011.0 |
| 20260510090001 | 48 | 285 | 0.9 | 2.6 | 0.01 | 0.13 | 0.01 | 77 | 1011.2 |
| 20260510084458 | 48 | 285 | 0.9 | 2.6 | 0.01 | 0.13 | 0.01 | 79 | 1010.6 |
| 20260510082958 | 48 | 309 | 0.9 | 3.5 | 0.01 | 0.13 | 0.01 | 80 | 1010.6 |
| 20260510081457 | 49 | 286 | 1.7 | 7.8 | 0.01 | 0.13 | 0.01 | 82 | 1010.5 |
| 20260510080000 | 50 | 301 | 1.7 | 5.2 | 0.00 | 0.12 | 0.00 | 88 | 1010.2 |
| 20260510074457 | 50 | 277 | 0.0 | 2.6 | 0.00 | 0.12 | 0.00 | 94 | 1010.0 |
| 20260510072957 | 50 | 258 | 0.9 | 2.6 | 0.00 | 0.12 | 0.00 | 94 | 1009.7 |
| 20260510071458 | 50 | 295 | 0.9 | 2.6 | 0.00 | 0.12 | 0.00 | 95 | 1009.7 |
| 20260510070001 | 50 | 261 | 1.7 | 3.5 | 0.00 | 0.12 | 0.00 | 95 | 1009.4 |
| 20260510064458 | 50 | 265 | 1.7 | 3.5 | 0.00 | 0.12 | 0.00 | 96 | 1009.2 |
| 20260510061458 | 47 | 159 | 0.0 | 0.9 | 0.00 | 0.12 | 0.00 | 96 | 1009.1 |
| 20260510054458 | 47 | 159 | 0.0 | 0.9 | 0.00 | 0.12 | 0.00 | 95 | 1009.0 |
| 20260510052958 | 48 | 159 | 0.0 | 0.9 | 0.00 | 0.12 | 0.00 | 95 | 1008.7 |
| 20260510051457 | 48 | 159 | 0.0 | 0.0 | 0.00 | 0.12 | 0.00 | 94 | 1008.7 |
| 20260510044456 | 49 | 159 | 0.0 | 0.0 | 0.00 | 0.12 | 0.00 | 94 | 1008.1 |
| 20260510041456 | 49 | 159 | 0.0 | 0.9 | 0.00 | 0.12 | 0.00 | 94 | 1008.1 |
| 20260510034500 | 49 | 159 | 0.0 | 0.9 | 0.00 | 0.12 | 0.12 | 93 | 1007.9 |
| 20260510033001 | 50 | 159 | 0.0 | 2.6 | 0.00 | 0.12 | 0.12 | 92 | 1007.8 |
| 20260510031500 | 50 | 159 | 0.0 | 1.7 | 0.00 | 0.12 | 0.12 | 91 | 1007.5 |
| 20260510024500 | 51 | 150 | 0.9 | 2.6 | 0.00 | 0.12 | 0.12 | 90 | 1007.2 |
| 20260510023000 | 52 | 212 | 0.0 | 1.7 | 0.00 | 0.12 | 0.12 | 90 | 1007.2 |
| 20260510021501 | 52 | 163 | 0.9 | 2.6 | 0.00 | 0.12 | 0.12 | 90 | 1007.0 |
| 20260510020004 | 52 | 203 | 0.9 | 2.6 | 0.00 | 0.12 | 0.12 | 90 | 1007.0 |
| 20260510014500 | 52 | 205 | 0.9 | 1.7 | 0.00 | 0.12 | 0.12 | 91 | 1006.2 |
| 20260510013000 | 52 | 214 | 0.9 | 1.7 | 0.01 | 0.12 | 0.12 | 91 | 1006.6 |
| 20260510010005 | 52 | 174 | 2.6 | 6.1 | 0.08 | 0.12 | 0.12 | 91 | 1005.9 |
| 20260510004501 | 52 | 184 | 2.6 | 6.1 | 0.12 | 0.12 | 0.12 | 90 | 1006.6 |
| 20260510003000 | 52 | 198 | 3.5 | 10.4 | 0.11 | 0.11 | 0.11 | 89 | 1006.9 |
| 20260510000005 | 56 | 277 | 7.8 | 20.0 | 0.04 | 0.04 | 0.04 | 81 | 1006.6 |
| 20260509234500 | 64 | 179 | 0.9 | 2.6 | 0.00 | 0.00 | 0.00 | 63 | 1004.7 |
| 20260509231503 | 64 | 164 | 0.9 | 4.3 | 0.00 | 0.00 | 0.00 | 61 | 1004.0 |
| 20260509230004 | 65 | 160 | 0.9 | 3.5 | 0.00 | 0.00 | 0.00 | 60 | 1004.2 |
| 20260509224500 | 65 | 198 | 2.6 | 5.2 | 0.00 | 0.00 | 0.00 | 59 | 1004.4 |
| 20260509223000 | 65 | 171 | 2.6 | 7.8 | 0.00 | 0.00 | 0.00 | 58 | 1004.4 |
| 20260509221500 | 65 | 180 | 3.5 | 7.0 | 0.00 | 0.00 | 0.00 | 58 | 1004.6 |
| 20260509220007 | 65 | 180 | 4.3 | 8.7 | 0.00 | 0.00 | 0.00 | 57 | 1004.5 |
| 20260509214459 | 65 | 199 | 3.5 | 7.8 | 0.00 | 0.00 | 0.00 | 56 | 1004.3 |
| 20260509210002 | 68 | 180 | 5.2 | 11.3 | 0.00 | 0.00 | 0.00 | 54 | 1004.4 |
| 20260509204459 | 68 | 175 | 6.1 | 13.0 | 0.00 | 0.00 | 0.00 | 55 | 1004.4 |
| 20260509202959 | 67 | 236 | 3.5 | 8.7 | 0.00 | 0.00 | 0.00 | 59 | 1004.2 |
| 20260509201459 | 66 | 221 | 4.3 | 9.6 | 0.00 | 0.00 | 0.00 | 59 | 1004.5 |
| 20260509200005 | 66 | 184 | 5.2 | 12.2 | 0.00 | 0.00 | 0.00 | 60 | 1004.8 |
| 20260509192959 | 65 | 211 | 5.2 | 13.9 | 0.00 | 0.00 | 0.00 | 62 | 1005.2 |
| 20260509191459 | 65 | 194 | 5.2 | 11.3 | 0.00 | 0.00 | 0.00 | 62 | 1005.2 |
| 20260509190006 | 66 | 136 | 3.5 | 7.8 | 0.00 | 0.00 | 0.00 | 63 | 1005.3 |
| 20260509184459 | 65 | 180 | 4.3 | 9.6 | 0.00 | 0.00 | 0.00 | 64 | 1005.6 |
| 20260509182959 | 65 | 109 | 5.2 | 9.6 | 0.00 | 0.00 | 0.00 | 59 | 1005.8 |
| 20260509181459 | 64 | 123 | 3.5 | 8.7 | 0.00 | 0.00 | 0.00 | 60 | 1006.0 |